Temperature
19 19 19 18 18 18 18 18 18 18 18 18 18 18 18 18 18 18 18 18 18 18 18 18 18 18 18 18 18 18 18 18 18 18 18 18 18 18 18 18 18 18 18
18 18 18 18 18 18 18 18 18 18 18 17 18 18 18 18 17 18 18 18 18 18 18 18 18 18 18 18 18 18 18 18 18 18 18 18 18 18 18 18 18 18 18
18 18 18 18 18 18 18 18 17 17 17 17 17 17 17 17 17 17 17 17 18 18 18 18 18 18 18 18 18 18 18 18 18 18 18 18 18 18 18 18 18 18 18
18 18 18 18 17 17 17 17 17 17 17 17 17 17 17 17 17 17 17 17 17 18 18 18 18 18 18 18 18 18 18 18 18 18 18 18 18 18 18 18 18 18 18
18 18 17 17 17 17 17 17 17 17 17 17 16 16 17 17 17 17 17 17 17 18 18 18 18 17 18 18 18 18 18 18 18 18 18 18 18 18 18 18 18 18 18
18 18 17 17 17 17 17 17 16 16 16 16 16 16 16 17 17 17 17 17 17 17 18 18 18 18 18 18 18 18 18 18 18 18 18 18 18 18 18 18 18 18 18
18 18 17 17 17 17 17 16 16 16 16 16 16 16 17 17 17 17 17 17 17 17 17 18 17 18 18 18 18 18 18 18 18 18 18 18 18 18 18 18 18 18 18
19 18 18 18 17 17 17 17 16 16 16 16 15 15 15 16 17 17 17 17 17 17 17 17 17 17 18 18 18 18 18 18 18 17 18 18 18 17 18 18 18 18 18
19 19 18 18 18 18 18 17 17 17 16 16 15 15 14 14 15 16 17 17 17 17 17 18 18 18 18 17 18 17 17 17 17 17 17 17 17 17 17 17 17 17 17
19 19 19 18 18 18 18 18 17 17 16 16 16 15 14 14 14 14 16 17 17 17 17 18 18 18 18 18 17 17 17 17 17 17 17 17 17 17 17 17 17 17 17
18 18 18 18 18 18 18 18 17 17 16 16 16 15 15 14 14 13 14 16 17 17 17 17 17 18 18 18 17 17 17 17 17 17 17 16 16 16 16 17 17 17 17
17 17 17 17 18 18 18 18 17 17 16 16 16 15 14 14 14 13 13 14 15 17 17 17 17 17 17 17 17 17 17 17 17 17 17 16 16 16 16 16 17 17 17
17 17 17 17 17 17 17 17 17 17 17 16 15 15 14 14 14 14 13 14 14 15 16 17 17 17 17 17 17 17 17 17 17 17 16 16 16 16 16 16 16 16 17
15 15 16 16 16 16 16 16 17 17 16 16 15 15 14 14 14 14 14 13 13 14 15 16 16 16 16 17 17 17 17 17 17 16 16 16 16 16 16 16 16 16 16
13 14 14 15 15 15 15 15 16 16 16 16 15 14 14 14 14 14 14 14 13 13 14 16 16 16 16 16 16 16 16 16 16 16 16 16 16 16 16 16 16 16 16
12 12 13 13 13 14 14 14 15 15 15 15 15 14 14 14 14 14 14 14 14 13 13 14 15 15 15 15 16 16 16 16 16 16 16 16 15 15 16 15 15 15 15
11 11 12 12 12 13 13 13 14 14 15 15 14 14 14 14 14 14 14 14 14 14 14 14 14 14 14 14 15 15 15 15 15 15 15 15 15 15 15 15 15 14 14
10 10 11 11 11 12 12 12 13 13 14 14 14 14 14 14 14 14 14 14 14 14 14 14 14 13 13 13 13 13 13 14 14 14 14 14 14 14 14 14 14 14 14
10 10 10 10 10 11 11 11 12 12 13 13 14 13 14 13 14 14 14 14 14 14 14 13 13 13 13 13 13 12 13 13 13 13 13 13 13 13 13 13 13 13 13
10 10 10 10 10 10 10 11 11 11 12 13 13 13 13 13 14 14 14 14 14 14 14 13 13 13 13 12 13 12 12 12 12 12 12 12 12 12 12 12 13 13 13
9 9 9 9 9 9 9 10 10 10 11 12 12 13 13 13 13 14 14 14 14 14 14 13 13 13 12 12 12 12 11 11 11 11 11 11 12 12 12 12 12 12 12
9 9 9 9 9 9 9 9 9 10 10 11 12 12 13 13 13 13 14 14 14 14 13 13 13 13 12 12 12 11 11 11 10 10 11 11 11 11 11 11 11 11 11
8 8 9 9 9 9 9 9 9 9 10 10 11 12 12 13 13 13 13 13 14 14 13 13 13 13 12 12 12 11 11 11 11 10 11 10 10 10 10 10 10 10 10
8 8 8 8 9 9 9 9 9 9 9 10 10 11 12 12 13 13 13 13 13 13 13 13 13 13 12 12 12 12 11 11 10 10 11 10 10 10 10 10 9 9 9
8 8 8 8 8 8 9 9 9 9 9 9 10 10 11 12 12 13 13 13 13 12 12 12 12 12 12 11 11 11 10 10 9 9 10 10 10 9 9 9 9 8 8
7 7 7 7 8 8 8 9 9 9 9 9 10 10 11 11 12 12 12 13 12 12 12 11 11 11 11 11 11 11 11 11 10 9 9 10 10 9 8 8 8 8 8
Wind_Speed
8 7 4 4 5 6 5 5 6 8 8 8 9 8 8 9 11 12 13 17 19 20 21 23 26 27 26 25 24 25 24 24 25 26 26 26 26 25 24 24 23 23 23
7 6 5 5 4 4 5 4 6 6 6 6 8 8 6 7 8 10 11 13 17 19 21 23 25 27 27 26 25 25 25 25 25 26 27 27 27 26 26 25 25 25 25
6 6 5 4 4 5 4 3 4 3 4 4 5 6 5 5 6 7 10 11 13 17 21 24 25 27 28 27 27 26 25 25 25 26 27 27 27 27 27 27 26 26 26
8 4 4 4 3 3 3 3 3 3 3 3 4 4 5 5 7 7 10 11 12 14 17 22 26 27 29 29 28 27 26 26 26 26 27 27 28 28 28 27 27 27 26
8 4 4 3 3 2 2 2 1 2 2 3 3 4 5 6 7 8 8 9 12 14 15 18 23 27 28 29 29 28 27 26 26 26 27 27 28 28 28 27 27 27 27
8 5 4 3 3 2 1 1 1 1 2 2 3 4 4 6 6 7 9 8 8 13 15 16 16 19 26 29 29 28 28 28 27 27 27 27 27 27 27 27 27 27 27
8 6 5 4 4 3 2 1 2 1 1 1 1 3 4 5 6 6 6 6 8 9 10 12 13 14 15 22 27 28 29 28 28 28 28 27 28 27 26 26 26 26 26
7 6 7 5 4 3 2 1 1 1 1 1 2 1 4 5 4 3 3 4 5 5 6 8 11 12 14 13 16 24 27 28 28 27 27 27 27 28 26 26 25 25 26
7 7 8 6 5 4 3 2 2 3 2 1 2 3 1 2 4 4 3 3 3 4 5 6 7 10 14 13 13 17 22 24 25 25 25 25 26 26 26 25 24 24 25
7 8 9 8 7 5 5 4 3 3 3 2 1 2 3 4 2 4 4 4 4 5 5 6 6 6 9 10 13 16 18 19 20 22 21 23 25 24 23 24 24 24 24
5 6 8 8 8 6 6 5 4 4 3 3 3 2 2 2 4 4 6 5 5 4 5 6 5 5 5 8 9 14 18 18 18 19 21 22 21 20 19 20 21 21 22
4 5 7 8 8 7 6 6 5 5 4 4 3 4 4 3 4 4 5 5 6 5 5 5 4 4 4 6 10 15 18 17 16 15 16 16 15 14 15 16 16 16 19
4 6 4 6 7 7 8 7 6 6 5 5 5 5 5 5 5 4 5 5 5 4 4 3 2 2 3 4 6 13 14 14 13 12 12 12 11 10 9 7 7 8 10
5 6 5 4 5 7 7 7 5 6 5 6 6 6 5 5 5 5 5 4 4 3 3 4 2 1 1 3 5 9 7 11 13 13 14 15 14 12 11 9 7 5 3
6 8 8 6 4 5 7 7 6 7 6 6 7 7 5 5 5 5 5 5 4 4 4 4 1 1 2 4 7 8 8 13 16 17 18 18 17 16 15 13 12 12 12
6 7 8 8 7 6 6 7 7 7 8 7 6 7 6 5 5 5 5 5 6 5 5 3 2 2 3 5 8 9 11 16 17 18 19 19 19 18 17 16 15 15 15
6 6 7 7 8 8 7 7 8 8 9 8 7 7 8 7 5 5 4 4 5 5 6 4 2 3 5 8 8 9 11 10 13 18 19 19 19 18 17 17 16 16 16
7 7 7 7 8 8 7 7 8 8 8 9 9 8 8 7 7 6 5 5 5 5 5 5 3 3 5 10 10 10 8 10 11 17 18 19 19 18 18 17 17 17 18
9 8 7 8 8 8 8 8 8 8 8 9 9 9 9 8 8 6 6 5 4 4 5 5 4 4 5 10 12 10 11 9 11 15 17 18 18 18 18 18 18 19 19
10 10 9 8 9 8 9 9 7 7 7 8 8 10 10 9 9 8 6 6 5 5 5 5 6 7 8 10 11 12 10 8 9 10 12 15 18 19 19 19 19 20 20
12 11 10 10 9 8 9 9 7 7 7 7 8 9 10 11 11 9 6 6 5 5 5 6 7 7 9 12 11 8 12 11 8 7 9 8 9 10 12 16 18 19 20
11 10 11 11 11 10 12 13 9 7 7 8 8 8 8 10 11 11 10 8 7 7 7 7 6 10 11 12 10 13 14 12 6 5 7 7 5 7 6 10 15 18 19
9 10 11 11 12 13 16 16 15 9 8 8 8 7 8 9 10 7 6 4 3 5 7 7 10 11 13 14 14 13 10 7 7 8 8 6 4 6 5 10 14 16 17
8 8 9 10 11 13 16 16 15 9 8 8 8 8 9 9 10 10 7 4 3 3 4 6 8 10 13 13 12 12 12 11 10 7 5 5 3 4 4 5 8 12 14
8 8 8 9 10 11 15 15 13 6 6 8 8 7 9 11 14 14 9 7 6 5 8 12 13 15 17 17 15 13 13 14 12 6 3 4 4 4 3 2 3 6 8
8 8 9 9 10 10 13 15 13 6 6 6 6 6 10 13 16 16 11 10 10 7 9 12 13 14 14 14 14 11 12 14 12 6 4 4 5 4 3 1 1 2 3
Wind_Direction
214 218 211 222 226 215 205 209 215 220 223 228 233 232 230 230 233 233 238 248 255 255 246 230 220 218 220 221 221 221 221 220 218 215 214 214 214 213 212 210 209 208 208
210 210 211 217 222 215 207 205 214 220 227 230 235 234 231 230 231 231 233 244 248 245 240 232 225 224 224 225 225 224 223 223 221 218 216 216 216 216 215 214 213 212 212
192 197 202 211 215 209 203 202 212 209 225 232 240 241 238 234 236 238 242 243 245 245 241 236 230 228 229 230 229 227 225 224 223 221 219 219 218 218 217 217 216 215 215
182 179 191 210 206 193 191 203 208 216 232 235 243 249 247 245 245 243 246 247 245 249 247 241 236 233 234 235 233 230 227 224 224 223 221 221 221 221 220 219 218 218 217
176 165 182 197 175 170 194 216 187 198 228 251 257 255 251 250 251 254 247 244 243 244 243 241 238 237 239 241 238 234 230 227 225 225 224 223 223 223 222 220 220 220 219
164 152 152 152 134 126 134 167 166 178 194 222 270 281 265 254 246 244 247 247 242 242 241 239 237 239 242 243 241 236 233 229 227 226 226 225 224 224 223 221 221 220 220
160 150 141 131 127 132 153 172 178 181 223 177 46 322 297 270 253 249 247 250 252 249 244 237 232 231 238 242 240 237 234 232 231 228 227 226 225 223 222 222 221 220 221
166 157 151 152 151 144 141 151 164 161 220 128 126 17 336 332 331 295 280 260 265 265 256 246 236 230 230 231 233 234 234 234 233 233 230 227 227 225 222 221 221 221 222
172 163 165 162 166 163 180 198 188 171 183 182 151 151 162 281 311 304 293 286 296 296 279 270 250 235 228 225 226 228 232 235 236 238 238 235 231 227 224 221 221 222 224
184 176 174 172 174 176 188 205 193 178 166 190 210 183 188 191 240 304 308 298 298 296 296 292 276 249 229 220 222 222 225 229 231 236 240 244 241 233 227 225 226 226 227
235 208 189 179 180 186 196 202 197 197 188 190 196 206 219 213 208 231 286 305 311 285 287 286 278 258 228 214 216 221 220 220 223 231 235 239 242 241 237 233 233 233 233
297 262 220 197 187 188 198 202 201 208 216 218 217 210 207 214 211 213 252 286 297 295 296 282 278 258 224 208 218 217 214 212 216 219 223 225 229 233 233 229 232 238 241
328 322 270 220 200 195 197 196 202 218 221 227 231 229 223 222 217 213 237 264 275 292 295 292 279 253 213 192 209 208 207 200 198 196 190 187 189 194 194 194 212 231 242
307 321 320 269 228 207 204 202 208 215 218 225 233 232 233 237 226 215 215 232 271 286 285 278 302 261 166 150 155 159 158 161 156 151 143 139 136 132 125 118 110 102 93
321 332 330 322 282 243 223 210 214 219 220 225 231 235 237 243 236 227 217 208 218 257 279 270 256 86 106 102 114 119 123 132 132 128 124 122 120 118 114 109 102 93 86
317 326 329 327 316 287 250 227 222 223 221 228 226 230 236 240 239 233 222 211 206 217 245 258 229 142 132 115 104 107 116 120 118 119 118 117 116 114 110 106 100 94 89
294 302 308 313 314 305 287 258 239 227 223 227 228 224 230 230 233 236 225 214 210 209 239 244 213 145 131 127 114 110 114 112 114 114 115 114 112 110 107 103 99 95 91
277 280 287 293 297 301 301 288 272 254 232 226 223 220 227 228 230 231 225 222 217 210 220 229 196 159 138 139 129 121 113 110 110 111 111 111 109 107 105 102 99 95 91
266 271 274 277 280 284 289 289 283 274 253 236 224 216 219 218 228 229 223 224 224 221 216 211 190 159 140 141 131 119 112 107 105 108 105 105 106 106 105 103 100 97 93
256 261 261 261 266 271 276 279 279 282 274 258 239 224 216 212 218 219 219 223 223 225 216 204 181 162 150 145 137 133 125 117 111 107 102 104 105 103 104 104 103 101 98
251 251 252 256 258 262 266 262 260 276 279 280 263 238 223 212 209 206 207 214 214 219 207 192 176 162 154 154 147 141 134 121 103 111 111 105 103 98 98 102 105 106 103
245 247 248 251 255 261 261 264 263 266 268 271 270 252 227 205 202 202 206 208 207 207 198 184 175 165 158 153 143 144 140 135 123 140 117 104 100 99 90 101 113 112 109
240 245 248 248 249 252 253 258 260 257 257 262 262 243 220 201 187 182 185 180 190 195 192 180 167 161 156 154 147 145 144 130 126 146 123 104 89 92 89 110 120 120 118
234 240 245 247 246 251 250 249 251 251 253 258 257 238 218 192 187 175 166 147 119 105 141 150 149 146 145 145 143 140 131 113 109 121 113 112 104 90 87 92 122 125 126
236 238 239 242 243 250 252 248 240 236 247 259 259 246 220 196 187 173 159 147 125 101 93 107 118 124 128 132 136 133 132 135 137 136 114 109 123 101 86 89 118 132 130
235 240 241 238 238 243 250 245 230 215 235 256 263 252 221 200 182 171 163 157 145 133 121 114 112 117 126 135 140 141 144 146 144 140 159 118 141 129 113 131 141 144 139
Height
1513 1513 1512 1512 1512 1513 1513 1514 1515 1516 1516 1517 1517 1518 1520 1521 1522 1524 1525 1526 1527 1527 1528 1529 1530 1532 1533 1535 1536 1536 1538 1539 1541 1543 1546 1548 1550 1552 1554 1555 1557 1559 1562
1509 1509 1509 1509 1509 1509 1509 1510 1511 1511 1512 1513 1514 1515 1516 1517 1518 1519 1520 1521 1522 1523 1523 1524 1526 1527 1529 1530 1531 1532 1534 1535 1537 1538 1541 1543 1546 1548 1550 1552 1554 1556 1558
1506 1506 1506 1505 1505 1505 1505 1505 1506 1507 1508 1509 1509 1510 1511 1512 1514 1514 1516 1516 1517 1518 1518 1519 1520 1521 1523 1525 1526 1528 1529 1531 1532 1534 1536 1539 1541 1544 1547 1549 1551 1553 1555
1504 1503 1503 1503 1502 1502 1502 1501 1501 1502 1503 1504 1504 1505 1507 1508 1508 1509 1510 1510 1511 1512 1512 1513 1514 1515 1517 1519 1520 1523 1525 1527 1529 1530 1532 1534 1537 1540 1542 1545 1547 1549 1551
1502 1501 1500 1500 1500 1500 1499 1499 1498 1498 1499 1499 1500 1501 1502 1502 1503 1503 1504 1504 1505 1506 1507 1508 1509 1510 1511 1513 1515 1517 1519 1522 1524 1526 1528 1530 1533 1535 1538 1541 1544 1546 1548
1500 1499 1498 1498 1498 1498 1498 1497 1496 1495 1495 1495 1495 1495 1496 1497 1497 1498 1498 1499 1500 1501 1501 1502 1503 1504 1506 1508 1510 1512 1514 1516 1519 1521 1524 1526 1528 1531 1534 1537 1540 1542 1545
1498 1497 1496 1496 1496 1496 1495 1494 1493 1492 1492 1491 1491 1490 1491 1491 1491 1492 1493 1494 1494 1495 1496 1496 1498 1499 1500 1502 1504 1506 1509 1511 1513 1516 1518 1521 1523 1526 1529 1533 1536 1538 1541
1497 1495 1494 1493 1493 1493 1492 1491 1491 1490 1488 1487 1487 1486 1486 1487 1487 1488 1488 1489 1490 1490 1490 1491 1491 1493 1495 1497 1499 1501 1503 1506 1508 1510 1513 1515 1518 1522 1525 1528 1531 1533 1536
1495 1493 1492 1492 1491 1491 1490 1489 1488 1487 1486 1485 1484 1484 1484 1484 1483 1483 1484 1485 1485 1486 1486 1486 1486 1487 1488 1491 1493 1495 1497 1500 1502 1504 1507 1509 1512 1516 1519 1523 1525 1528 1530
1492 1491 1490 1490 1489 1489 1488 1487 1486 1484 1483 1481 1481 1481 1482 1482 1482 1479 1478 1480 1480 1481 1481 1481 1481 1481 1482 1484 1487 1489 1491 1493 1495 1498 1500 1503 1506 1510 1513 1517 1520 1522 1524
1488 1488 1487 1487 1487 1487 1486 1484 1483 1482 1480 1478 1477 1477 1477 1478 1478 1478 1475 1474 1475 1476 1476 1476 1476 1476 1478 1479 1481 1483 1485 1487 1489 1492 1494 1497 1500 1504 1507 1510 1513 1516 1517
1483 1483 1483 1483 1483 1483 1483 1482 1480 1479 1477 1475 1474 1473 1473 1473 1473 1474 1473 1471 1470 1470 1471 1471 1471 1472 1473 1475 1477 1478 1480 1482 1484 1487 1489 1491 1495 1498 1502 1505 1507 1509 1511
1477 1477 1476 1477 1477 1478 1478 1478 1477 1476 1474 1472 1471 1470 1470 1469 1469 1469 1469 1468 1466 1465 1465 1466 1467 1468 1469 1470 1472 1474 1476 1478 1480 1482 1485 1488 1491 1494 1497 1500 1502 1503 1504
1470 1470 1469 1470 1471 1472 1473 1473 1473 1472 1470 1469 1467 1467 1466 1465 1465 1465 1465 1465 1463 1462 1461 1462 1463 1463 1465 1466 1468 1470 1472 1474 1476 1479 1481 1484 1487 1490 1493 1495 1497 1498 1499
1465 1464 1463 1463 1464 1465 1466 1467 1467 1467 1466 1465 1463 1463 1462 1462 1461 1461 1461 1461 1461 1459 1458 1458 1459 1460 1461 1463 1464 1466 1469 1471 1473 1476 1478 1481 1484 1487 1489 1491 1493 1494 1494
1461 1459 1458 1457 1457 1458 1459 1460 1460 1461 1460 1460 1459 1458 1458 1458 1457 1456 1456 1456 1456 1456 1455 1454 1455 1457 1458 1460 1461 1463 1465 1468 1471 1473 1476 1479 1482 1484 1486 1488 1489 1490 1491
1456 1454 1452 1451 1450 1450 1451 1452 1453 1453 1454 1454 1454 1454 1454 1453 1453 1452 1452 1452 1451 1451 1450 1450 1451 1453 1454 1456 1458 1460 1463 1466 1468 1472 1474 1477 1480 1482 1485 1486 1488 1489 1490
1451 1449 1447 1445 1444 1444 1444 1444 1444 1446 1447 1447 1448 1448 1448 1448 1448 1448 1447 1447 1447 1446 1446 1445 1447 1449 1451 1453 1456 1459 1461 1464 1467 1471 1474 1477 1479 1482 1484 1486 1487 1489 1490
1445 1444 1442 1440 1439 1438 1437 1437 1437 1438 1439 1440 1441 1442 1442 1443 1443 1442 1442 1442 1441 1441 1440 1440 1442 1445 1448 1451 1454 1457 1460 1463 1467 1470 1473 1476 1479 1482 1484 1486 1487 1489 1490
1439 1438 1436 1435 1433 1432 1431 1431 1431 1431 1432 1432 1434 1435 1436 1437 1437 1437 1436 1436 1435 1435 1434 1435 1437 1440 1444 1447 1451 1455 1459 1463 1466 1470 1473 1477 1479 1482 1485 1487 1488 1489 1491
1432 1431 1430 1429 1428 1427 1425 1425 1425 1425 1425 1425 1426 1427 1429 1430 1431 1431 1431 1430 1430 1429 1428 1429 1432 1436 1440 1444 1447 1452 1456 1461 1466 1470 1473 1477 1480 1483 1486 1488 1490 1491 1493
1424 1423 1422 1422 1421 1421 1420 1419 1419 1418 1418 1418 1419 1420 1422 1424 1425 1426 1425 1425 1424 1423 1423 1425 1427 1431 1435 1439 1444 1449 1453 1458 1464 1471 1474 1478 1482 1485 1488 1490 1492 1493 1494
1415 1415 1414 1414 1414 1414 1414 1413 1413 1413 1412 1412 1412 1413 1415 1418 1420 1420 1420 1420 1419 1418 1419 1421 1423 1427 1431 1435 1441 1447 1452 1457 1460 1468 1474 1478 1483 1486 1489 1492 1493 1495 1496
1406 1405 1405 1406 1405 1406 1406 1407 1407 1407 1406 1406 1405 1406 1408 1411 1414 1415 1416 1416 1415 1415 1415 1417 1420 1424 1430 1435 1440 1446 1452 1459 1464 1470 1476 1478 1484 1488 1491 1493 1495 1496 1497
1395 1396 1396 1397 1397 1398 1399 1400 1400 1401 1400 1400 1399 1399 1402 1405 1408 1410 1412 1413 1413 1413 1414 1417 1420 1425 1430 1436 1442 1447 1453 1458 1464 1471 1477 1479 1484 1488 1492 1494 1496 1498 1498
1385 1386 1387 1388 1389 1389 1391 1392 1393 1394 1394 1394 1393 1393 1396 1399 1403 1406 1408 1410 1411 1412 1414 1418 1422 1428 1433 1439 1444 1449 1453 1458 1463 1471 1477 1480 1484 1488 1493 1496 1497 1499 1500